This is the latest recevied weather packets stored in our database for station/object HS3PIK-2. If no packets are shown the sender has not sent any weather packets the latest 1 day(s).
| Time | Temp. | Humidity | Pressure | Rain* | Wind** | Luminosity | Snow |
|---|---|---|---|---|---|---|---|
| 1778035856 | 32.22° C | 72% | - | - | 0 m/s | 0 W/m² | - |
| 1778035529 | 32.22° C | 72% | - | - | 0 m/s | 0 W/m² | - |
| 1778035201 | 31.67° C | 70% | - | - | 0 m/s | 0 W/m² | - |
| 1778034874 | 31.67° C | 70% | - | - | 0 m/s | 0 W/m² | - |
| 1778034544 | 31.11° C | 70% | - | - | 0 m/s | 0 W/m² | - |
| 1778034217 | 31.67° C | 74% | - | - | 0 m/s | 0 W/m² | - |
| 1778033889 | 31.11° C | 74% | - | - | 0 m/s | 0 W/m² | - |
| 1778033562 | 31.11° C | 74% | - | - | 0 m/s | 0 W/m² | - |
| 1778033237 | 30.56° C | 74% | - | - | 0 m/s | 0 W/m² | - |
| 1778032909 | 30.56° C | 74% | - | - | 0 m/s | 0 W/m² | - |
| 1778032584 | 30.56° C | 76% | - | - | 0 m/s | 0 W/m² | - |
| 1778032262 | 30.56° C | 77% | - | - | 0 m/s | 0 W/m² | - |
| 1778031935 | 30° C | 77% | - | - | 0 m/s | 0 W/m² | - |
| 1778031607 | 30.56° C | 77% | - | - | 0 m/s | 0 W/m² | - |
| 1778031285 | 30° C | 78% | - | - | 0 m/s | 0 W/m² | - |
| 1778030957 | 30° C | 79% | - | - | 0 m/s | 0 W/m² | - |
| 1778030632 | 30° C | 80% | - | - | 0 m/s | 0 W/m² | - |
| 1778030302 | 29.44° C | 81% | - | - | 0 m/s | 0 W/m² | - |
| 1778029978 | 28.89° C | 82% | - | - | 0 m/s | 0 W/m² | - |
| 1778029653 | 28.89° C | 83% | - | - | 0 m/s | 0 W/m² | - |
| 1778029330 | 28.33° C | 83% | - | - | 0 m/s | 0 W/m² | - |
| 1778028998 | 28.33° C | 83% | - | - | 0 m/s | 0 W/m² | - |
| 1778028668 | 28.33° C | 84% | - | - | 0 m/s | 0 W/m² | - |
| 1778028343 | 28.33° C | 83% | - | - | 0 m/s | 0 W/m² | - |
| 1778028018 | 28.33° C | 85% | - | - | 0 m/s | 0 W/m² | - |
* Rain since midnight (hover to see other rain measurements)
** Current wind speed in m/s (hover to see current wind gust speed)